Location: Eschertshofen
(49.3064°N, 11.5756°E)
Time: 22:11:21
(UTC+00:00)

OBJECT-B - Pass Details

Date: 18 September 2020
Orbit: 421 x 433 km, 97.0° (Epoch: 09 October)

Event Time Altitude Azimuth Distance (km) Brightness Sun altitude
Exits shadow 20:34:37 10° 272° (W) 1,493 4.1 -29.5°
Drops below altitude 10° 20:35:11 10° 282° (WNW) 1,516 4.2 -29.6°
Sets 20:38:52 0° 326° (NW) 2,393 5.7 -30.0°
